Location: Brno
(49.2000°N, 16.6333°E)
Time: 16:14:25
(UTC+02:00)

ISS - Visible Passes

Search period start: 26 September 2018 00:00
Search period end: 06 October 2018 00:00
Orbit: 403 x 408 km, 51.6° (Epoch: 26 September)

Date Brightness Start Highest point End Pass type
(mag) Time Alt. Az. Time Alt. Az. Time Alt. Az.
26 Sep -3.9 20:11:52 10° WSW 20:15:10 81° SSE 20:16:23 36° ENE visible
26 Sep -0.6 21:48:34 10° W 21:49:04 13° WNW 21:49:04 13° WNW visible
27 Sep -3.6 19:20:04 10° SW 19:23:18 55° SSE 19:26:33 10° ENE visible
27 Sep -2.9 20:56:34 10° W 20:59:15 48° NW 20:59:15 48° NW visible
28 Sep -3.6 20:04:35 10° W 20:07:52 68° NNW 20:09:23 29° ENE visible
28 Sep -0.7 21:41:21 10° WNW 21:42:03 15° WNW 21:42:03 15° WNW visible
29 Sep -3.8 19:12:36 10° WSW 19:15:55 88° N 19:19:13 10° ENE visible
29 Sep -2.9 20:49:21 10° WNW 20:52:07 47° NW 20:52:07 47° NW visible
30 Sep -3.3 19:57:19 10° W 20:00:35 55° N 20:02:08 27° ENE visible
30 Sep -0.8 21:34:00 10° WNW 21:34:48 16° WNW 21:34:48 16° WNW visible
01 Oct -3.5 19:05:16 10° W 19:08:33 63° N 19:11:50 10° ENE visible
01 Oct -3.1 20:42:01 10° WNW 20:44:47 51° NNW 20:44:47 51° NNW visible
02 Oct -3.4 19:50:00 10° WNW 19:53:15 54° N 19:54:46 27° ENE visible
02 Oct -0.8 21:26:35 10° WNW 21:27:26 17° WNW 21:27:26 17° WNW visible
03 Oct -3.3 18:57:56 10° W 19:01:12 54° N 19:04:27 10° ENE visible
03 Oct -3.4 20:34:36 10° WNW 20:37:24 60° NW 20:37:24 60° NW visible
04 Oct -3.6 19:42:35 10° WNW 19:45:52 63° N 19:47:23 28° E visible
04 Oct -0.9 21:19:10 10° WNW 21:20:03 17° W 21:20:03 17° W visible
05 Oct -3.4 20:27:06 10° WNW 20:30:03 59° WSW 20:30:03 59° WSW visible
